�������l�o���
Date,Time,MP-1(��Sv/h),MP-2(��Sv/h),MP-3(��Sv/h),MP-4(��Sv/h),MP-5(��Sv/h),MP-6(��Sv/h),MP-7(��Sv/h),MP-8(��Sv/h),����,����(m/s),���J
2018/07/13,00:00,0.864,1.221,0.864,1.534,1.080,0.477,0.824,0.783,��쐼,5.6,�L
2018/07/13,00:10,0.863,1.221,0.863,1.534,1.078,0.479,0.823,0.784,��,6.4,�L
2018/07/13,00:20,0.863,1.218,0.863,1.531,1.078,0.478,0.824,0.784,��,6.8,�L
2018/07/13,00:30,0.860,1.216,0.862,1.530,1.078,0.478,0.824,0.782,��쐼,5.3,�L
2018/07/13,00:40,0.860,1.212,0.859,1.527,1.075,0.476,0.824,0.782,��쐼,5.2,�L
2018/07/13,00:50,0.861,1.213,0.859,1.529,1.075,0.475,0.823,0.783,��쐼,3.9,�L
2018/07/13,01:00,0.857,1.204,0.855,1.516,1.069,0.477,0.822,0.780,��쐼,3.2,�L
2018/07/13,01:10,0.853,1.202,0.854,1.509,1.062,0.477,0.823,0.779,��,4.3,�L
2018/07/13,01:20,0.853,1.203,0.858,1.510,1.066,0.476,0.821,0.778,��,3.9,�L
2018/07/13,01:30,0.855,1.203,0.855,1.510,1.067,0.476,0.821,0.777,��,3.8,�L
2018/07/13,01:40,0.855,1.202,0.855,1.510,1.068,0.475,0.819,0.778,��,4.3,�L
2018/07/13,01:50,0.855,1.204,0.856,1.510,1.066,0.477,0.818,0.779,��,4.3,�L
2018/07/13,02:00,0.855,1.203,0.855,1.510,1.067,0.475,0.819,0.777,��쐼,3.7,�L
2018/07/13,02:10,0.854,1.203,0.854,1.512,1.065,0.474,0.817,0.780,��,2.2,�L
2018/07/13,02:20,0.854,1.202,0.853,1.509,1.064,0.474,0.818,0.778,��,3.4,�L
2018/07/13,02:30,0.850,1.198,0.852,1.507,1.062,0.473,0.818,0.775,��,2.8,�L
2018/07/13,02:40,0.853,1.200,0.853,1.507,1.065,0.472,0.818,0.778,��,3.2,�L
2018/07/13,02:50,0.851,1.199,0.852,1.506,1.064,0.473,0.819,0.776,��,3.8,�L
2018/07/13,03:00,0.853,1.201,0.853,1.508,1.062,0.472,0.819,0.775,��,3.3,�L
2018/07/13,03:10,0.850,1.201,0.851,1.507,1.061,0.472,0.818,0.777,��,3.5,�L
2018/07/13,03:20,0.851,1.201,0.852,1.508,1.061,0.472,0.817,0.776,��,2.6,��
2018/07/13,03:30,0.850,1.201,0.851,1.508,1.062,0.474,0.818,0.779,��,3.1,��
2018/07/13,03:40,0.848,1.202,0.851,1.508,1.062,0.473,0.819,0.778,��,2.3,�L
2018/07/13,03:50,0.851,1.201,0.852,1.509,1.064,0.473,0.819,0.777,��쐼,2.0,��
2018/07/13,04:00,0.850,1.202,0.850,1.508,1.064,0.473,0.818,0.777,��쐼,1.7,��
2018/07/13,04:10,0.853,1.204,0.850,1.510,1.064,0.474,0.817,0.775,�쐼,1.2,��
2018/07/13,04:20,0.852,1.204,0.851,1.510,1.064,0.472,0.819,0.776,���쐼,0.6,��
2018/07/13,04:30,0.851,1.205,0.852,1.509,1.063,0.473,0.820,0.779,��,0.6,��
2018/07/13,04:40,0.852,1.201,0.852,1.509,1.065,0.473,0.819,0.779,-,CALM,��
2018/07/13,04:50,0.851,1.205,0.851,1.510,1.063,0.473,0.818,0.779,-,CALM,�L
2018/07/13,05:00,0.852,1.203,0.852,1.509,1.065,0.474,0.820,0.780,�쐼,0.6,��
2018/07/13,05:10,0.854,1.204,0.849,1.512,1.067,0.472,0.821,0.778,��쓌,0.9,��
2018/07/13,05:20,0.852,1.205,0.852,1.510,1.064,0.471,0.819,0.779,���쐼,1.7,�L
2018/07/13,05:30,0.851,1.202,0.851,1.512,1.066,0.473,0.820,0.778,���쐼,3.3,�L
2018/07/13,05:40,0.851,1.203,0.852,1.509,1.064,0.472,0.819,0.779,���쐼,2.0,�L
2018/07/13,05:50,0.851,1.204,0.851,1.508,1.066,0.473,0.820,0.778,��,2.3,�L
2018/07/13,06:00,0.851,1.205,0.853,1.510,1.066,0.471,0.820,0.779,�쐼,2.3,�L
2018/07/13,06:10,0.852,1.206,0.851,1.509,1.067,0.472,0.820,0.778,�쐼,2.6,��
2018/07/13,06:20,0.853,1.204,0.853,1.512,1.068,0.472,0.820,0.778,��쐼,3.6,��
2018/07/13,06:30,0.851,1.204,0.850,1.508,1.066,0.471,0.820,0.779,��,3.6,�L
2018/07/13,06:40,0.851,1.204,0.850,1.513,1.063,0.472,0.820,0.776,��쓌,2.0,�L
2018/07/13,06:50,0.852,1.207,0.851,1.511,1.066,0.473,0.818,0.781,��쓌,3.4,�L
2018/07/13,07:00,0.852,1.206,0.853,1.512,1.066,0.472,0.819,0.779,��,3.6,��
2018/07/13,07:10,0.851,1.206,0.850,1.510,1.066,0.473,0.819,0.780,��쓌,4.0,��
2018/07/13,07:20,0.853,1.206,0.851,1.511,1.066,0.473,0.818,0.778,��쓌,3.5,��
2018/07/13,07:30,0.851,1.206,0.850,1.511,1.071,0.473,0.820,0.780,��,3.1,��
2018/07/13,07:40,0.853,1.207,0.849,1.512,1.069,0.473,0.821,0.779,��,3.1,��
2018/07/13,07:50,0.854,1.207,0.851,1.512,1.068,0.472,0.820,0.778,��쓌,2.3,��
2018/07/13,08:00,0.853,1.207,0.851,1.513,1.067,0.472,0.821,0.779,��쓌,2.1,��
2018/07/13,08:10,0.855,1.209,0.852,1.513,1.067,0.472,0.822,0.778,��,1.7,��
2018/07/13,08:20,0.854,1.211,0.851,1.514,1.071,0.472,0.822,0.778,��쓌,2.2,��
2018/07/13,08:30,0.854,1.209,0.850,1.514,1.070,0.471,0.820,0.779,��쓌,1.5,��
2018/07/13,08:40,0.851,1.211,0.849,1.513,1.069,0.471,0.820,0.778,�쓌,1.9,��
2018/07/13,08:50,0.854,1.212,0.854,1.515,1.071,0.472,0.820,0.777,��쓌,1.7,��
2018/07/13,09:00,0.853,1.212,0.851,1.514,1.071,0.471,0.821,0.776,��쓌,2.2,��
2018/07/13,09:10,0.857,1.210,0.851,1.514,1.071,0.472,0.820,0.777,��쓌,1.9,��
2018/07/13,09:20,0.856,1.210,0.852,1.513,1.071,0.472,0.821,0.776,��쓌,2.1,��
2018/07/13,09:30,0.858,1.212,0.853,1.517,1.074,0.473,0.822,0.778,��쓌,3.5,��
2018/07/13,09:40,0.862,1.214,0.854,1.514,1.072,0.473,0.821,0.777,��쓌,2.6,��
2018/07/13,09:50,0.860,1.212,0.852,1.516,1.071,0.473,0.821,0.776,��쓌,3.9,��
2018/07/13,10:00,0.860,1.213,0.851,1.517,1.072,0.474,0.821,0.777,��쓌,1.9,��
2018/07/13,10:10,0.860,1.213,0.852,1.518,1.073,0.474,0.822,0.778,�쓌,2.5,��
2018/07/13,10:20,0.861,1.216,0.853,1.519,1.073,0.474,0.824,0.779,�쓌,2.3,��
2018/07/13,10:30,0.862,1.216,0.853,1.518,1.077,0.474,0.824,0.780,�쓌,2.6,��
2018/07/13,10:40,0.865,1.216,0.856,1.516,1.075,0.473,0.824,0.778,��쓌,3.3,��
2018/07/13,10:50,0.864,1.219,0.856,1.518,1.078,0.473,0.824,0.779,�쓌,2.8,��
2018/07/13,11:00,0.865,1.220,0.857,1.519,1.078,0.476,0.824,0.781,��,3.7,��
2018/07/13,11:10,0.865,1.220,0.857,1.521,1.078,0.476,0.826,0.781,��,4.2,��
2018/07/13,11:20,0.866,1.222,0.857,1.518,1.080,0.475,0.825,0.782,��쓌,4.6,��
2018/07/13,11:30,0.866,1.222,0.858,1.519,1.081,0.476,0.827,0.781,��쓌,4.4,��
2018/07/13,11:40,0.867,1.222,0.858,1.518,1.081,0.475,0.827,0.780,��쓌,5.2,��
2018/07/13,11:50,0.866,1.224,0.857,1.521,1.079,0.476,0.825,0.782,�쓌,4.5,��
2018/07/13,12:00,0.867,1.221,0.858,1.519,1.084,0.476,0.828,0.781,�쓌,4.8,��
2018/07/13,12:10,0.869,1.227,0.860,1.522,1.082,0.477,0.828,0.781,��쓌,5.3,��
2018/07/13,12:20,0.870,1.225,0.857,1.520,1.082,0.476,0.827,0.783,�쓌,5.9,��
2018/07/13,12:30,0.868,1.226,0.858,1.523,1.085,0.475,0.827,0.782,��쓌,5.4,��
2018/07/13,12:40,0.869,1.226,0.859,1.522,1.085,0.475,0.827,0.781,��쓌,6.3,��
2018/07/13,12:50,0.870,1.228,0.859,1.525,1.084,0.475,0.827,0.781,�쓌,5.6,��
2018/07/13,13:00,0.869,1.225,0.859,1.520,1.085,0.474,0.828,0.782,��쓌,4.7,��
2018/07/13,13:10,0.868,1.228,0.860,1.522,1.085,0.475,0.827,0.780,��쓌,4.6,��
2018/07/13,13:20,0.868,1.227,0.858,1.524,1.085,0.473,0.826,0.781,��쓌,6.8,��
2018/07/13,13:30,0.867,1.226,0.860,1.523,1.087,0.474,0.827,0.782,��쓌,6.8,��
2018/07/13,13:40,0.870,1.228,0.861,1.523,1.087,0.474,0.828,0.780,��쓌,5.6,��
2018/07/13,13:50,0.869,1.232,0.861,1.524,1.084,0.475,0.827,0.782,��쓌,4.3,��
2018/07/13,14:00,0.868,1.227,0.862,1.525,1.086,0.474,0.827,0.784,��쐼,3.2,��
2018/07/13,14:10,0.870,1.232,0.860,1.525,1.089,0.472,0.829,0.783,�쐼,2.8,��
2018/07/13,14:20,0.871,1.234,0.861,1.528,1.088,0.474,0.830,0.782,��,2.3,��
2018/07/13,14:30,0.872,1.234,0.861,1.525,1.088,0.474,0.828,0.782,���k��,1.9,��
2018/07/13,14:40,0.873,1.232,0.860,1.524,1.088,0.474,0.829,0.783,�k��,2.0,��
2018/07/13,14:50,0.868,1.233,0.859,1.526,1.091,0.475,0.829,0.783,���k��,3.6,��
2018/07/13,15:00,0.872,1.235,0.861,1.524,1.088,0.473,0.829,0.783,���k��,5.0,��
2018/07/13,15:10,0.872,1.235,0.861,1.528,1.092,0.473,0.827,0.783,���k��,3.6,��
2018/07/13,15:20,0.871,1.234,0.863,1.528,1.091,0.474,0.828,0.784,�k��,4.1,��
2018/07/13,15:30,0.874,1.237,0.864,1.527,1.090,0.475,0.830,0.785,�k��,4.4,��
2018/07/13,15:40,0.873,1.234,0.863,1.530,1.091,0.474,0.829,0.783,�k�k��,4.2,��
2018/07/13,15:50,0.875,1.234,0.867,1.532,1.092,0.472,0.828,0.782,�k��,3.4,��
2018/07/13,16:00,0.875,1.238,0.864,1.532,1.092,0.476,0.828,0.783,�k��,4.4,��
2018/07/13,16:10,0.873,1.235,0.862,1.532,1.093,0.475,0.828,0.784,���k��,4.7,��
2018/07/13,16:20,0.875,1.237,0.863,1.530,1.089,0.475,0.828,0.785,�k��,5.2,��
2018/07/13,16:30,0.874,1.234,0.862,1.533,1.092,0.475,0.829,0.784,���k��,4.3,��
2018/07/13,16:40,0.876,1.238,0.862,1.532,1.091,0.476,0.830,0.785,�k��,4.2,��
2018/07/13,16:50,0.875,1.238,0.864,1.535,1.090,0.475,0.830,0.788,�k��,4.3,��
2018/07/13,17:00,0.876,1.237,0.866,1.535,1.091,0.477,0.833,0.787,���k��,4.8,��
2018/07/13,17:10,0.878,1.237,0.866,1.536,1.092,0.474,0.833,0.786,���k��,4.2,��
2018/07/13,17:20,0.875,1.238,0.866,1.538,1.089,0.475,0.831,0.784,��,4.3,��
2018/07/13,17:30,0.876,1.241,0.865,1.536,1.091,0.477,0.832,0.784,��,5.0,��
2018/07/13,17:40,0.875,1.237,0.866,1.539,1.091,0.476,0.830,0.785,��,3.9,��
2018/07/13,17:50,0.876,1.236,0.864,1.536,1.089,0.476,0.830,0.785,��,2.5,��
2018/07/13,18:00,0.874,1.236,0.867,1.535,1.090,0.476,0.830,0.785,���쐼,0.6,��
2018/07/13,18:10,0.872,1.236,0.866,1.537,1.089,0.476,0.831,0.786,��,0.8,��
2018/07/13,18:20,0.875,1.236,0.867,1.539,1.088,0.478,0.830,0.786,���쐼,0.6,��
2018/07/13,18:30,0.877,1.235,0.865,1.536,1.091,0.474,0.830,0.785,�k��,1.7,��
2018/07/13,18:40,0.873,1.234,0.867,1.537,1.087,0.474,0.829,0.786,���k��,2.3,��
2018/07/13,18:50,0.875,1.238,0.865,1.534,1.090,0.474,0.830,0.784,���k��,3.1,��
2018/07/13,19:00,0.874,1.235,0.866,1.537,1.088,0.474,0.828,0.785,���k��,3.2,��
2018/07/13,19:10,0.873,1.238,0.864,1.534,1.090,0.476,0.829,0.785,���k��,3.8,��
2018/07/13,19:20,0.874,1.234,0.864,1.539,1.089,0.475,0.828,0.784,-,CALM,��
2018/07/13,19:30,0.873,1.238,0.864,1.536,1.088,0.474,0.828,0.784,���쓌,1.7,��
2018/07/13,19:40,0.875,1.236,0.866,1.537,1.089,0.473,0.830,0.785,-,CALM,��
2018/07/13,19:50,0.876,1.234,0.866,1.536,1.089,0.474,0.827,0.785,���쓌,0.9,��
2018/07/13,20:00,0.875,1.239,0.865,1.533,1.089,0.474,0.826,0.784,���쓌,2.0,��
2018/07/13,20:10,0.874,1.238,0.864,1.536,1.087,0.475,0.827,0.785,��,2.0,��
2018/07/13,20:20,0.875,1.235,0.865,1.534,1.092,0.475,0.828,0.785,�쓌,1.4,��
2018/07/13,20:30,0.874,1.239,0.864,1.537,1.091,0.474,0.829,0.783,���쓌,1.2,��
2018/07/13,20:40,0.873,1.235,0.865,1.536,1.089,0.475,0.828,0.785,��,0.8,��
2018/07/13,20:50,0.876,1.237,0.866,1.535,1.090,0.474,0.829,0.785,��쐼,0.9,��
2018/07/13,21:00,0.872,1.238,0.866,1.534,1.091,0.474,0.829,0.783,��쐼,0.9,��
2018/07/13,21:10,0.874,1.236,0.864,1.538,1.089,0.476,0.829,0.787,-,CALM,��
2018/07/13,21:20,0.873,1.238,0.864,1.534,1.090,0.476,0.827,0.784,�쓌,0.8,��
2018/07/13,21:30,0.872,1.237,0.865,1.536,1.090,0.476,0.829,0.785,�쓌,1.5,��
2018/07/13,21:40,0.876,1.238,0.866,1.536,1.090,0.473,0.827,0.786,��쓌,0.9,��
2018/07/13,21:50,0.873,1.237,0.867,1.537,1.089,0.475,0.830,0.785,��쓌,1.5,��
2018/07/13,22:00,0.875,1.236,0.864,1.538,1.089,0.475,0.829,0.785,��,2.3,��
2018/07/13,22:10,0.874,1.237,0.866,1.539,1.091,0.476,0.829,0.785,��,1.4,��
2018/07/13,22:20,0.875,1.237,0.868,1.538,1.090,0.475,0.828,0.786,��쓌,1.7,��
2018/07/13,22:30,0.873,1.237,0.865,1.538,1.090,0.475,0.830,0.784,���쓌,0.8,��
2018/07/13,22:40,0.872,1.236,0.865,1.535,1.090,0.475,0.830,0.785,���쓌,0.6,��
2018/07/13,22:50,0.875,1.235,0.864,1.536,1.091,0.477,0.831,0.785,-,CALM,��
2018/07/13,23:00,0.875,1.234,0.867,1.535,1.091,0.476,0.830,0.785,��,1.4,��
2018/07/13,23:10,0.874,1.237,0.866,1.536,1.089,0.474,0.828,0.785,��,2.0,��
2018/07/13,23:20,0.874,1.238,0.866,1.537,1.089,0.476,0.831,0.785,��,1.9,��
2018/07/13,23:30,0.873,1.239,0.867,1.537,1.090,0.475,0.828,0.787,��,1.5,��
2018/07/13,23:40,0.874,1.238,0.867,1.538,1.091,0.476,0.830,0.787,��,1.4,��
2018/07/13,23:50,0.873,1.237,0.865,1.537,1.089,0.475,0.830,0.787,��쓌,0.9,��
